Regional Weather Roundup
Issued by NWS Jackson, KY

Home | Current Version | Previous Version | Text Only | Print | Product List | Glossary On
Versions: 1 2 3 4 5 6 7 8 9 10 11 12 13 14 15 16 17 18 19 20 21 22 23 24 25 26 27 28 29 30 31 32 33 34 35 36 37 38 39 40 41 42 43 44 45 46 47 48 49 50
000
ASUS43 KJKL 302019
RWRJKL

EAST KENTUCKY HOURLY WEATHER ROUNDUP
NATIONAL WEATHER SERVICE JACKSON KY
400 PM EDT TUE SEP 30 2014

NOTE: "FAIR" INDICATES FEW OR NO CLOUDS BELOW 12,000 FEET WITH
NO SIGNIFICANT WEATHER AND/OR OBSTRUCTIONS TO VISIBILITY.

* THESE REPORTS ARE NOT UNDER NWS QUALITY CONTROL AND MAY NOT
  REPORT WEATHER SUCH AS PRECIPITATION AND FOG.

KYZ079-080-083-085-087-088-110-112-115-119-120-302100
...EASTERN KENTUCKY...

CITY           SKY/WX    TMP DP  RH WIND       PRES   REMARKS
JACKSON        SUNNY     79  56  45 CALM      29.92F
LONDON         MOSUNNY   83  52  34 NE5       29.93F
SOMERSET*      MOSUNNY   81  46  30 CALM      29.93S
MONTICELLO*    SUNNY     84  52  33 VRB7      29.94F
WILLIAMSBURG*  SUNNY    N/A N/A N/A CALM        N/A
MIDDLESBORO*   SUNNY     80  54  40 N3        29.92F
HARLAN APT*    CLEAR     79  46  31 N3        29.93S
HAZARD APT*    CLEAR     79  54  41 W5        29.92
BLACK MTN*       N/A     70  52  52 NW3         N/A
PIKEVILLE APT* SUNNY     79  55  44 W6        29.92F
BIG SANDY*     PTCLDY    80  56  45 W9        29.91S
MOREHEAD APT*  CLEAR     82  52  34 SW10      29.91F
ASHLAND*       SUNNY     81  54  39 W3        29.84F
$$

KYZ035-036-041-042-044-050-067-078-099-302100
...CENTRAL KENTUCKY...

CITY           SKY/WX    TMP DP  RH WIND       PRES   REMARKS
MT STERLING*   MOSUNNY   81  55  41 NW6       29.92S
FLEMING/MASON* PTSUNNY   79  54  41 NW5       29.89F
DANVILLE*      MOSUNNY   82  50  32 NW3       29.92F
RICHMOND*      MOSUNNY   82  48  30 N3        29.90F
LEXINGTON      MOSUNNY   84  54  35 W7        29.90F
FRANKFORT      MOSUNNY   81  53  37 NW9       29.89F
$$

KYZ091>093-OHZ055-061-077-WVZ005-015-034-035-042-302100
...SOUTHERN OHIO/WEST VIRGINIA...

CITY           SKY/WX    TMP DP  RH WIND       PRES   REMARKS
COVINGTON      MOSUNNY   77  57  50 N13       29.91S
COLUMBUS       CLOUDY    60  56  86 N14       29.93R
DAYTON         CLOUDY    61  55  81 N12       29.95F
WILMINGTON     PTSUNNY   68  57  68 N14       29.92S
HUNTINGTON     MOSUNNY   77  55  46 SW6       29.87F
CHARLESTON     MOSUNNY   81  54  39 SW8       29.87F
PINEVILLE*     MOSUNNY   79  60  52 MISG      29.97F
BECKLEY        MOSUNNY   76  48  37 NW9       29.95S
BLUEFIELD      MOSUNNY   72  50  45 VRB3      29.98S
$$

VAZ002-007-008-TNZ017-027-036-066-071-302100
...SOUTHWEST VIRGINIA/EAST TENNESSEE...

CITY           SKY/WX    TMP DP  RH WIND       PRES   REMARKS
WISE*          SUNNY     75  45  33 NW7       29.99S
JONESVILLE*    PTCLDY    79  54  41 CALM      29.94F
ABINGDON*      SUNNY     77  54  43 NW6       29.94F
BRISTOL        MOSUNNY   79  53  40 VRB5      29.92F
KNOXVILLE      MOSUNNY   82  56  40 VRB6      29.91F
OAK RIDGE      SUNNY     80  59  48 CALM      29.93F
CROSSVILLE     MOSUNNY   79  52  38 N9        29.96F
NASHVILLE      MOSUNNY   87  50  27 NE10      29.90F
$$

...KEY TO REMARKS...
VSB - VISIBILITY IN MILES
WCI - WIND CHILL INDEX
HX  - HEAT INDEX

$$


USA.gov is the U.S. government's official web portal to all federal, state and local government web resources and services.